Orbital Elements at Epoch 2459000.5 (2020-May-31.0) TDB
Reference: JPL 26 (heliocentric ecliptic J2000)
Element | Value | Uncertainty (1-sigma) | Units |
e | .1800757540960239 | 4.4399e-08 | |
a | 3.02942719915163 | 1.7051e-08 | au |
q | 2.483900811785395 | 1.3514e-07 | au |
i | 11.09991526529172 | 5.2991e-06 | deg |
node | 296.432184890426 | 2.48e-05 | deg |
peri | 104.9001504437521 | 3.1229e-05 | deg |
M | 47.18548587145359 | 1.5598e-05 | deg |
tp | 2458748.067575824546 (2019-Sep-21.56757582) | 8.3486e-05 | TDB |
period | 1925.924275755773 5.27 | 1.626e-05 4.452e-08 | d yr |
n | .18692323708248 | 1.5781e-09 | deg/d |
Q | 3.574953586517866 | 2.0121e-08 | au |
|
| | Orbit Determination Parameters
Additional Information
|